Regional Weather Roundup
Issued by NWS

Home | Current Version | Previous Version | Text Only | Print | Product List | Glossary On
Versions: 1 2 3 4 5 6 7 8 9 10 11 12 13 14 15 16 17 18 19 20 21 22 23 24 25 26 27 28 29 30 31 32 33 34 35 36 37 38 39 40 41 42 43 44 45 46 47 48 49 50
000
ASUS43 KDTX 281001
RWRMI
MICHIGAN HOURLY REGIONAL WEATHER ROUNDUP
NATIONAL WEATHER SERVICE DETROIT/PONTIAC MI
600 AM EDT FRI AUG 28 2015

NOTE: "FAIR" INDICATES FEW OR NO CLOUDS BELOW 12,000 FEET WITH NO
SIGNIFICANT WEATHER AND/OR OBSTRUCTION TO VISIBILITY.

MIZ047>049-052>055-059>063-066>070-074>076-081>083-281100-
SOUTHEAST LOWER MICHIGAN

CITY           SKY/WX    TMP DP  RH WIND       PRES   REMARKS
ADRIAN         CLEAR     48  46  93 CALM      30.20R
ALMA           FOG       48  48 100 CALM      30.19R VSB 1/4
ANN ARBOR      CLEAR     47  46  97 CALM      30.18S
BAD AXE        CLOUDY    51  51  99 CALM      30.20R
CARO           CLOUDY    50  50  99 CALM      30.19R
DETROIT CITY   CLEAR     53  49  86 CALM      30.19R
DETROIT        FAIR      55  51  86 CALM      30.20R
FLINT          CLEAR     47  45  93 CALM      30.19R FOG
GROSSE ILE     PTCLDY    55  52  88 CALM      30.18R
HILLSDALE      PTCLDY    54  54 100 CALM      30.19R FOG
HOWELL         CLEAR     47  46  99 CALM      30.19S FOG

CITY           SKY/WX    TMP DP  RH WIND       PRES   REMARKS
JACKSON        PTCLDY    49  49 100 CALM      30.19R FOG
LAMBERTVILLE   FOG       50  48  92 CALM      30.19R VSB 1/2
LANSING        CLEAR     51  49  92 CALM      30.19R
LAPEER         FAIR      44  44 100 CALM      30.20R FOG
MASON          CLEAR     45  45  99 CALM      30.19R
MONROE         PTCLDY    50  49  97 CALM      30.18R FOG
MT. CLEMENS    CLEAR     51  50  97 NW1       30.17R FOG
PONTIAC        CLEAR     49  47  93 CALM      30.19R
PORT HOPE        N/A     56  52  86 SW8       30.17R
PORT HURON     FOG       45  45 100 CALM      30.20R VSB 1/2
TRI CITIES     MOCLDY    56  53  90 S5        30.20R
MIDLAND        FAIR      54  51  92 CALM      30.18R
TROY           CLEAR     53  51  92 CALM      30.20S
SAGINAW HB     CLOUDY    54  52  94 SW3       30.18R
$$
MIZ043>046-050>051-056>058-064>065-071>073-077>080-281100-
SOUTHWEST LOWER MICHIGAN

CITY           SKY/WX    TMP DP  RH WIND       PRES   REMARKS
BATTLE CREEK   CLEAR     56  53  90 S6        30.18S
BENTON HARBOR  CLEAR     57  54  89 SE6       30.14F
BIG RAPIDS     FOG       50  49  97 CALM      30.16S VSB 1/4
COLDWATER      FOG       51  51 100 CALM      30.18S VSB 1
FREMONT        FAIR      52  52 100 CALM      30.15S FOG
HOLLAND        PTCLDY    54  51  90 SE5       30.15F
GRAND RAPIDS   PTCLDY    53  52  96 CALM      30.17S
IONIA          FOG       49  49 100 CALM      30.17S VSB 1/4
KALAMAZOO      CLEAR     57  53  86 S5        30.17F
LUDINGTON      PTCLDY    56  54  92 E3        30.13F
MARSHALL       MOCLDY    55  53  94 CALM      30.18S
MOUNT PLEASANT   N/A     53  50  92 CALM      30.17R FOG
MUSKEGON       PTCLDY    54  51  90 SE8       30.14F
SOUTH HAVEN    CLEAR     55  53  94 SE3       30.14F
$$
MIZ016>042-281100-
NORTHERN LOWER MICHIGAN

CITY           SKY/WX    TMP DP  RH WIND       PRES   REMARKS
ALPENA         CLEAR     53  51  93 CALM      30.15R
BEAVER ISLAND  CLEAR     63  58  82 SW8       30.10S
BELLAIRE       CLEAR     48  47  96 CALM      30.14S
CADILLAC       CLEAR     48  46  93 CALM      30.16S
CHARLEVOIX     CLEAR     59  58  96 S6        30.14S
FRANKFORT      CLEAR     55  54  98 CALM      30.13S
GAYLORD        PTCLDY    53  52  96 CALM      30.15S
GRAYLING       CLEAR     44  44  97 CALM      30.16S
HARBOR SPRINGS PTCLDY    54  53  97 CALM      30.13R
HOUGHTON LAKE  CLEAR     53  51  93 VRB3      30.17R
MANISTEE       CLEAR     52  48  87 E5        30.14S
OSCODA         PTCLDY    53  53  99 SW7       30.15S
PELLSTON       CLEAR     47  45  93 CALM      30.12R
ROGERS CITY    CLEAR     54  52  94 SW6       30.14R
TRAVERSE CITY  CLEAR     59  54  83 VRB5      30.12S
$$
MIZ007>008-015-281100-
EASTERN UPPER MICHIGAN

CITY           SKY/WX    TMP DP  RH WIND       PRES   REMARKS
KINROSS        CLOUDY    57  57 100 S5        30.10S VSB 1/2
MACKINAC ISLAN CLEAR     59  58  94 S6        30.10S
NEWBERRY       CLEAR     57  56  98 S8        30.08S
S. S. MARIE    FOG       57  55  93 SE5       30.09S VSB 1/2
MUNISING         N/A     62  56  80 SW9       30.04S
$$
MIZ004>006-011>014-085-281100-
CENTRAL UPPER MICHIGAN

CITY           SKY/WX    TMP DP  RH WIND       PRES   REMARKS
MANISTIQUE     PTCLDY    61  57  88 S6        30.07S
ESCANABA       MOCLDY    57  54  88 CALM      30.06S
MENOMINEE      PTCLDY    59  54  82 SW6       30.06F
SAWYER-GWINN   CLOUDY    56  55  95 SW6       30.06S
$$
MIZ001>003-009>011-084-281100-
WESTERN UPPER MICHIGAN

CITY           SKY/WX    TMP DP  RH WIND       PRES   REMARKS
IRON MOUNTAIN  MOCLDY    55  54  96 CALM      30.06R
HOUGHTON       CLOUDY    56  53  90 CALM      30.00S
COPPER HARBOR    N/A     62  55  77 VRB5      29.98S
IRONWOOD       MOCLDY    64  59  82 SW6       29.99S
$$

ABBREVIATIONS USED IN REMARKS
   TC - TEMPERATURE IN CELSIUS
  WCI - WIND CHILL INDEX
   HX - HEAT INDEX
  VSB - VISIBILITY



USA.gov is the U.S. government's official web portal to all federal, state and local government web resources and services.